Regional Weather Roundup
Issued by NWS

Home | Current Version | Previous Version | Graphics & Text | Print | Product List | Glossary On
Versions: 1 2 3 4 5 6 7 8 9 10 11 12 13 14 15 16 17 18 19 20 21 22 23 24 25 26 27 28 29 30 31 32 33 34 35 36 37 38 39 40 41 42 43 44 45 46 47 48 49 50
000
ASUS43 KBIS 241210
RWRND

NORTH DAKOTA REGIONAL WEATHER ROUNDUP
NATIONAL WEATHER SERVICE BISMARCK ND
600 AM CST TUE JAN 24 2017

NOTE: "FAIR" INDICATES FEW OR NO CLOUDS BELOW 12,000 FEET WITH NO
SIGNIFICANT WEATHER AND/OR OBSTRUCTIONS TO VISIBILITY.


NDZ001>003-009>011-017-241300-
NORTHWEST NORTH DAKOTA

CITY           SKY/WX    TMP DP  RH WIND       PRES   REMARKS
WILLISTON      CLOUDY    21  16  81 NW10      29.87S WCI  10
6HR MIN TEMP:  21; 6HR MAX TEMP:  22;

MINOT          CLOUDY    24  19  81 W12       29.84S WCI  13
MINOT AFB      CLOUDY    21  17  84 NW14      29.83S WCI   8
$$

NDZ018>021-031>035-040>046-241300-
SOUTHWEST NORTH DAKOTA

CITY           SKY/WX    TMP DP  RH WIND       PRES   REMARKS
BISMARCK       CLOUDY    25  19  78 NW6       29.87S WCI  18
6HR MIN TEMP:  24; 6HR MAX TEMP:  29;

DICKINSON      CLOUDY    20  17  88 NW6       29.80F WCI  12
GARRISON         N/A     22  17  81 NW12      29.84F WCI  10
6HR MIN TEMP:  20; 6HR MAX TEMP:  22;

HETTINGER ARPT CLOUDY    21  19  92 NE12      29.80F FOG     WCI   9
$$

NDZ004>008-012>016-024-026-027-054-241300-
NORTHEAST NORTH DAKOTA

CITY           SKY/WX    TMP DP  RH WIND       PRES   REMARKS
GRAND FORKS    CLOUDY    26  20  77 W8        29.87S WCI  18
GRND FRKS AFB  CLOUDY    25  20  79 NW9       29.87S WCI  16
$$

NDZ022-023-025-028>030-036>039-047>053-241300-
SOUTHEAST NORTH DAKOTA

CITY           SKY/WX    TMP DP  RH WIND       PRES   REMARKS
FARGO          CLOUDY    31  25  78 NW12      29.88R
6HR MIN TEMP:  31; 6HR MAX TEMP:  33; 6HR PCP: TRACE;

JAMESTOWN      CLOUDY    23  20  88 NW12      29.86R WCI  12
$$





USA.gov is the U.S. government's official web portal to all federal, state and local government web resources and services.